Location: Peterborough
(44.3091°N, 78.3197°W)
Time: 16:36:28
(UTC-04:00)

Transit 2A Rocket - Pass Details

Date: 25 March 2023
Orbit: 584 x 914 km, 66.7° (Epoch: 04 June)

Event Time Altitude Azimuth Distance (km) Brightness Sun altitude
Rises 10:57:36 0° 159° (SSE) 3,210 9.0 37.3°
Reaches altitude 10° 11:00:52 10° 137° (SE) 2,360 8.8 37.7°
Maximum altitude 11:03:57 15° 102° (ESE) 2,067 8.2 38.1°
Drops below altitude 10° 11:07:09 10° 68° (ENE) 2,486 8.0 38.5°
Sets 11:10:44 0° 47° (NE) 3,481 8.4 38.9°
